Weather in Litvinovka

Russia / Rostov Oblast     48°23′34″N   40°53′14″E
temp.,
°C
wind,
m/s
gust,
m/s
humid.,
%
clouds,
%
prec.,
mm/h
press.,
hPa
HPBL,
m
5 december, sun
sun500:00+1ne4998100 1.4 1014325
03:00+1ene61095100 1.5 1012369
06:00+1e51096100 2.5 1011326
09:00+2ene5897100 6.9 1011327
12:00+2ne4798100 3.5 1010251
15:00+2nne5897100 3.5 1011278
18:00+1nne4995100 0.1 1014321
21:00+1nne3695100 0.1 1015257
6 december, mon
mon600:00+1nne3494100 0.0 1017199
03:00+1nne2494100 0.0 1018199
06:00+1ne2293100 0.0 1019141
09:00+2e1292100 0.0 1020104
12:00+4sse2285100 0.0 1020362
15:00+4sse1281100 0.0 1020417
18:00+4ese1187100 0.0 102114
21:00+3ese2390100 0.0 102246
7 december, tue
tue700:00+4se3788100 0.0 1022228
03:00+4se4888100 0.0 1022241
06:00+5se51087100 0.1 1021269
09:00+5se51286100 0.1 1021347
12:00+8se61279100 0.0 1020429
15:00+8se61279100 0.0 1018424
18:00+7se61485100 0.0 1018386
21:00+6se71787100 0.0 1017443
8 december, wed
wed800:00+6se7168682 0.0 1016448
03:00+5ese71682100 0.0 1015463
06:00+5se71683100 0.0 1014539
09:00+5se61485100 0.0 1014579
12:00+6se71178100 0.0 1012710
15:00+7se61080100 0.0 1011524
18:00+6ese41086100 0.0 1012328
21:00+5se3891100 0.0 1012226
9 december, thu
thu900:00+5ene4691100 0.0 1011117
03:00+4ese35949 0.0 1012103
06:00+4se3496100 0.0 101374
09:00+5s229580 0.0 101441
12:00+8sw468592 0.0 1014501
15:00+8ssw4983100 0.0 1015336
18:00+7sw51088100 0.0 1016553
21:00+7sw51091100 0.1 1016471